AZU4363 SBKP-SBCH

Flight info

Callsign AZU4363
Flight time 1h 10m
Altitude 34000
Route ASETA UL310 USVIP DCT NIRDA
Aircraft A20N/M-SDE2E3FGHIRWXY/LB1

Departure

Time 2026-04-25 01:07
Airport Viracopos International Airport (SBKP)

Arrival

Time 2026-04-25 02:18
Airport Serafin Enoss Bertaso Airport (SBCH)
Time Latitude Longitude Altitude Speed Heading
2026-04-25 00:42 -23.00535 -47.15191 2160 ft 0 kts 218°
2026-04-25 00:59 -23.00532 -47.15188 2160 ft 2 kts 218°
2026-04-25 00:59 -23.00519 -47.15176 2152 ft 2 kts 221°
2026-04-25 00:59 -23.00507 -47.15164 2152 ft 2 kts 224°
2026-04-25 01:00 -23.00495 -47.15151 2161 ft 2 kts 229°
2026-04-25 01:00 -23.00486 -47.15137 2162 ft 2 kts 243°
2026-04-25 01:00 -23.00482 -47.15120 2150 ft 2 kts 292°
2026-04-25 01:00 -23.00485 -47.15114 2151 ft 0 kts 307°
2026-04-25 01:02 -23.00474 -47.15130 2160 ft 5 kts 306°
2026-04-25 01:03 -23.00433 -47.15179 2155 ft 12 kts 329°
2026-04-25 01:03 -23.00341 -47.15139 2156 ft 18 kts 38°
2026-04-25 01:03 -23.00246 -47.15058 2156 ft 11 kts 38°
2026-04-25 01:03 -23.00170 -47.14993 2154 ft 15 kts 38°
2026-04-25 01:04 -23.00082 -47.14921 2159 ft 17 kts 37°
2026-04-25 01:04 -22.99996 -47.14821 2160 ft 17 kts 43°
2026-04-25 01:04 -22.99945 -47.14779 2160 ft 0 kts 38°
2026-04-25 01:05 -22.99938 -47.14773 2143 ft 4 kts 38°
2026-04-25 01:05 -22.99902 -47.14728 2160 ft 11 kts 52°
2026-04-25 01:05 -22.99884 -47.14649 2156 ft 10 kts 131°
2026-04-25 01:06 -22.99894 -47.14634 2153 ft 1 kts 124°
2026-04-25 01:06 -23.00022 -47.14454 2157 ft 61 kts 128°
2026-04-25 01:06 -23.00401 -47.13923 2160 ft 117 kts 128°
2026-04-25 01:06 -23.01002 -47.13078 2169 ft 162 kts 127°
2026-04-25 01:07 -23.01723 -47.12085 2530 ft 169 kts 127°
2026-04-25 01:07 -23.02426 -47.11100 3114 ft 166 kts 128°
2026-04-25 01:07 -23.03315 -47.10360 3505 ft 171 kts 167°
2026-04-25 01:07 -23.04522 -47.10545 3871 ft 182 kts 202°
2026-04-25 01:08 -23.05756 -47.11168 4127 ft 209 kts 207°
2026-04-25 01:08 -23.07168 -47.11917 4278 ft 242 kts 206°
2026-04-25 01:08 -23.08780 -47.12723 4612 ft 265 kts 204°
2026-04-25 01:08 -23.10368 -47.13716 5182 ft 272 kts 225°
2026-04-25 01:09 -23.11308 -47.15462 5881 ft 273 kts 258°
2026-04-25 01:09 -23.11401 -47.17488 6661 ft 273 kts 273°
2026-04-25 01:09 -23.11299 -47.19511 7398 ft 275 kts 273°
2026-04-25 01:09 -23.11224 -47.21577 8141 ft 278 kts 271°
2026-04-25 01:10 -23.11197 -47.23675 8890 ft 281 kts 270°
2026-04-25 01:10 -23.11206 -47.25810 9634 ft 285 kts 269°
2026-04-25 01:10 -23.11236 -47.27976 10323 ft 290 kts 269°
2026-04-25 01:10 -23.11280 -47.30232 10634 ft 308 kts 268°
2026-04-25 01:11 -23.11333 -47.32633 10872 ft 327 kts 268°
2026-04-25 01:11 -23.11392 -47.35099 11154 ft 341 kts 268°
2026-04-25 01:11 -23.11454 -47.37678 11633 ft 347 kts 268°
2026-04-25 01:11 -23.11519 -47.40327 12195 ft 351 kts 268°
2026-04-25 01:12 -23.11583 -47.42985 12766 ft 354 kts 268°
2026-04-25 01:12 -23.11647 -47.45667 13348 ft 357 kts 268°
2026-04-25 01:12 -23.11710 -47.48264 13887 ft 360 kts 268°
2026-04-25 01:12 -23.11776 -47.51051 14397 ft 363 kts 269°
2026-04-25 01:13 -23.11842 -47.53799 14928 ft 365 kts 269°
2026-04-25 01:13 -23.11907 -47.56559 15474 ft 367 kts 269°
2026-04-25 01:13 -23.11971 -47.59278 15999 ft 369 kts 269°
2026-04-25 01:13 -23.12036 -47.62066 16540 ft 371 kts 269°
2026-04-25 01:14 -23.12102 -47.64868 17066 ft 372 kts 269°
2026-04-25 01:14 -23.12167 -47.67687 17578 ft 374 kts 269°
2026-04-25 01:14 -23.12232 -47.70526 18061 ft 377 kts 269°
2026-04-25 01:14 -23.12297 -47.73383 18502 ft 379 kts 269°
2026-04-25 01:15 -23.12362 -47.76252 18886 ft 381 kts 269°
2026-04-25 01:15 -23.12427 -47.79140 19272 ft 383 kts 269°
2026-04-25 01:15 -23.12578 -47.82033 19647 ft 385 kts 264°
2026-04-25 01:15 -23.13133 -47.84880 20023 ft 388 kts 253°
2026-04-25 01:16 -23.14214 -47.87577 20397 ft 391 kts 242°
2026-04-25 01:16 -23.15699 -47.90066 20792 ft 394 kts 237°
2026-04-25 01:16 -23.17294 -47.92490 21185 ft 396 kts 236°
2026-04-25 01:16 -23.18915 -47.94923 21587 ft 397 kts 236°
2026-04-25 01:17 -23.20515 -47.97331 21976 ft 399 kts 236°
2026-04-25 01:17 -23.21609 -47.98984 22259 ft 400 kts 236°
2026-04-25 01:17 -23.23757 -48.02241 22787 ft 402 kts 237°
2026-04-25 01:17 -23.25362 -48.04679 23179 ft 404 kts 237°
2026-04-25 01:18 -23.26965 -48.07250 23574 ft 404 kts 241°
2026-04-25 01:18 -23.28224 -48.09978 23915 ft 404 kts 250°
2026-04-25 01:18 -23.29041 -48.12892 24212 ft 405 kts 258°
2026-04-25 01:18 -23.29613 -48.15896 24546 ft 406 kts 260°
2026-04-25 01:19 -23.30084 -48.18935 24875 ft 408 kts 262°
2026-04-25 01:19 -23.30494 -48.21893 25208 ft 410 kts 262°
2026-04-25 01:19 -23.30918 -48.25059 25548 ft 412 kts 262°
2026-04-25 01:19 -23.31336 -48.28141 25871 ft 414 kts 262°
2026-04-25 01:20 -23.31768 -48.31251 26190 ft 416 kts 262°
2026-04-25 01:20 -23.32207 -48.34349 26518 ft 418 kts 262°
2026-04-25 01:20 -23.32691 -48.37448 26819 ft 420 kts 258°
2026-04-25 01:20 -23.33485 -48.40526 27117 ft 423 kts 251°
2026-04-25 01:21 -23.34672 -48.43424 27405 ft 427 kts 243°
2026-04-25 01:21 -23.36179 -48.46214 27702 ft 430 kts 240°
2026-04-25 01:21 -23.37821 -48.48995 27995 ft 432 kts 239°
2026-04-25 01:21 -23.39503 -48.51716 28289 ft 434 kts 238°
2026-04-25 01:22 -23.41215 -48.54436 28573 ft 436 kts 238°
2026-04-25 01:22 -23.42913 -48.57127 28846 ft 438 kts 238°
2026-04-25 01:22 -23.44635 -48.59869 29110 ft 439 kts 238°
2026-04-25 01:22 -23.46358 -48.62628 29388 ft 441 kts 238°
2026-04-25 01:23 -23.48078 -48.65401 29645 ft 443 kts 238°
2026-04-25 01:23 -23.49797 -48.68181 30016 ft 442 kts 238°
2026-04-25 01:23 -23.51508 -48.70953 30387 ft 440 kts 238°
2026-04-25 01:23 -23.53210 -48.73714 30726 ft 438 kts 238°
2026-04-25 01:24 -23.54907 -48.76470 31056 ft 437 kts 238°
2026-04-25 01:24 -23.56598 -48.79218 31380 ft 436 kts 238°
2026-04-25 01:24 -23.58284 -48.81959 31712 ft 434 kts 238°
2026-04-25 01:24 -23.59964 -48.84691 32056 ft 433 kts 238°
2026-04-25 01:25 -23.61635 -48.87410 32388 ft 431 kts 238°
2026-04-25 01:25 -23.63303 -48.90125 32717 ft 430 kts 238°
2026-04-25 01:25 -23.64962 -48.92827 33045 ft 429 kts 238°
2026-04-25 01:25 -23.66617 -48.95525 33364 ft 427 kts 239°
2026-04-25 01:26 -23.68267 -48.98215 33679 ft 426 kts 239°
2026-04-25 01:26 -23.69912 -49.00899 33980 ft 425 kts 239°
2026-04-25 01:26 -23.71552 -49.03576 34054 ft 423 kts 239°
2026-04-25 01:27 -23.74796 -49.08872 34062 ft 417 kts 239°
2026-04-25 01:27 -23.78015 -49.14136 34060 ft 417 kts 239°
2026-04-25 01:28 -23.82840 -49.22039 34060 ft 417 kts 239°
2026-04-25 01:28 -23.86054 -49.27309 34064 ft 417 kts 239°
2026-04-25 01:29 -23.89245 -49.32546 34064 ft 416 kts 239°
2026-04-25 01:29 -23.92456 -49.37821 34068 ft 416 kts 239°
2026-04-25 01:30 -23.95662 -49.43093 34064 ft 416 kts 239°
2026-04-25 01:30 -23.98867 -49.48369 34068 ft 416 kts 239°
2026-04-25 01:31 -24.02067 -49.53643 34073 ft 416 kts 239°
2026-04-25 01:31 -24.05264 -49.58918 34074 ft 416 kts 239°
2026-04-25 01:32 -24.08919 -49.63831 34082 ft 421 kts 226°
2026-04-25 01:32 -24.13374 -49.68027 34083 ft 423 kts 223°
2026-04-25 01:33 -24.17943 -49.72040 34081 ft 424 kts 223°
2026-04-25 01:33 -24.22549 -49.76056 34081 ft 423 kts 223°
2026-04-25 01:34 -24.27134 -49.80088 34081 ft 422 kts 223°
2026-04-25 01:34 -24.30968 -49.83480 34084 ft 422 kts 223°
2026-04-25 01:35 -24.35529 -49.87525 34093 ft 421 kts 223°
2026-04-25 01:35 -24.40091 -49.91574 34090 ft 421 kts 223°
2026-04-25 01:36 -24.44616 -49.95595 34095 ft 421 kts 223°
2026-04-25 01:36 -24.49169 -49.99642 34092 ft 421 kts 224°
2026-04-25 01:37 -24.53720 -50.03690 34089 ft 421 kts 224°
2026-04-25 01:37 -24.58263 -50.07737 34085 ft 421 kts 224°
2026-04-25 01:38 -24.62808 -50.11790 34097 ft 420 kts 224°
2026-04-25 01:38 -24.67351 -50.15842 34083 ft 420 kts 224°
2026-04-25 01:39 -24.71882 -50.19890 34095 ft 420 kts 224°
2026-04-25 01:39 -24.76415 -50.23943 34083 ft 420 kts 224°
2026-04-25 01:40 -24.80941 -50.27994 34086 ft 419 kts 224°
2026-04-25 01:40 -24.85467 -50.32049 34076 ft 419 kts 224°
2026-04-25 01:41 -24.89989 -50.36103 34076 ft 419 kts 224°
2026-04-25 01:41 -24.94475 -50.40129 34079 ft 418 kts 224°
2026-04-25 01:42 -24.98987 -50.44183 34092 ft 418 kts 224°
2026-04-25 01:42 -25.03497 -50.48239 34075 ft 418 kts 224°
2026-04-25 01:43 -25.07997 -50.52291 34077 ft 418 kts 224°
2026-04-25 01:43 -25.12497 -50.56345 34074 ft 417 kts 224°
2026-04-25 01:44 -25.16986 -50.60394 34075 ft 417 kts 224°
2026-04-25 01:44 -25.21479 -50.64451 34070 ft 417 kts 224°
2026-04-25 01:45 -25.25965 -50.68506 34068 ft 417 kts 225°
2026-04-25 01:45 -25.30453 -50.72565 34072 ft 417 kts 225°
2026-04-25 01:46 -25.34935 -50.76623 34070 ft 417 kts 225°
2026-04-25 01:46 -25.39421 -50.80690 34073 ft 417 kts 225°
2026-04-25 01:47 -25.43905 -50.84759 34075 ft 417 kts 225°
2026-04-25 01:47 -25.48358 -50.88803 34076 ft 417 kts 225°
2026-04-25 01:48 -25.52836 -50.92874 34077 ft 416 kts 225°
2026-04-25 01:48 -25.57310 -50.96946 34079 ft 416 kts 225°
2026-04-25 01:49 -25.61779 -51.01018 34078 ft 416 kts 225°
2026-04-25 01:49 -25.66249 -51.05094 34080 ft 416 kts 225°
2026-04-25 01:50 -25.70716 -51.09172 34081 ft 416 kts 225°
2026-04-25 01:50 -25.75193 -51.13264 34086 ft 420 kts 226°
2026-04-25 01:51 -25.79718 -51.17406 34087 ft 423 kts 226°
2026-04-25 01:51 -25.84228 -51.21532 34086 ft 422 kts 226°
2026-04-25 01:52 -25.88756 -51.25678 34083 ft 422 kts 226°
2026-04-25 01:52 -25.93275 -51.29822 33932 ft 419 kts 226°
2026-04-25 01:53 -25.95523 -51.31886 33190 ft 421 kts 226°
2026-04-25 01:53 -25.97791 -51.33974 32382 ft 425 kts 226°
2026-04-25 01:53 -26.00065 -51.36067 31700 ft 425 kts 225°
2026-04-25 01:53 -26.02346 -51.38165 31032 ft 425 kts 225°
2026-04-25 01:54 -26.04624 -51.40261 30356 ft 426 kts 225°
2026-04-25 01:54 -26.06901 -51.42355 29818 ft 422 kts 225°
2026-04-25 01:54 -26.09146 -51.44417 29339 ft 416 kts 225°
2026-04-25 01:54 -26.11359 -51.46452 28844 ft 410 kts 225°
2026-04-25 01:55 -26.13546 -51.48463 28378 ft 405 kts 225°
2026-04-25 01:55 -26.15705 -51.50453 27900 ft 400 kts 225°
2026-04-25 01:55 -26.17837 -51.52420 27423 ft 396 kts 225°
2026-04-25 01:55 -26.19945 -51.54366 26957 ft 392 kts 225°
2026-04-25 01:56 -26.22030 -51.56294 26489 ft 388 kts 226°
2026-04-25 01:56 -26.24098 -51.58207 26024 ft 384 kts 225°
2026-04-25 01:56 -26.26146 -51.60101 25565 ft 381 kts 225°
2026-04-25 01:56 -26.28177 -51.61981 25107 ft 378 kts 225°
2026-04-25 01:57 -26.32195 -51.65702 24187 ft 372 kts 226°
2026-04-25 01:57 -26.34183 -51.67544 23733 ft 370 kts 226°
2026-04-25 01:57 -26.36154 -51.69372 23209 ft 368 kts 225°
2026-04-25 01:58 -26.38112 -51.71189 22752 ft 363 kts 225°
2026-04-25 01:58 -26.40043 -51.72979 22307 ft 359 kts 225°
2026-04-25 01:58 -26.41954 -51.74753 21861 ft 355 kts 225°
2026-04-25 01:58 -26.43842 -51.76505 21414 ft 352 kts 225°
2026-04-25 01:59 -26.45718 -51.78249 20970 ft 350 kts 225°
2026-04-25 01:59 -26.47585 -51.79985 20520 ft 349 kts 225°
2026-04-25 01:59 -26.49448 -51.81720 20081 ft 348 kts 225°
2026-04-25 01:59 -26.51281 -51.83426 19656 ft 347 kts 225°
2026-04-25 02:00 -26.53130 -51.85147 19215 ft 346 kts 225°
2026-04-25 02:00 -26.54974 -51.86864 18783 ft 345 kts 224°
2026-04-25 02:00 -26.56811 -51.88575 18342 ft 344 kts 224°
2026-04-25 02:00 -26.58644 -51.90285 17860 ft 343 kts 224°
2026-04-25 02:01 -26.60477 -51.91992 17428 ft 341 kts 224°
2026-04-25 02:01 -26.62297 -51.93688 16996 ft 339 kts 224°
2026-04-25 02:01 -26.64104 -51.95375 16579 ft 338 kts 224°
2026-04-25 02:01 -26.65902 -51.97052 16145 ft 336 kts 224°
2026-04-25 02:02 -26.67693 -51.98723 15730 ft 334 kts 224°
2026-04-25 02:02 -26.69469 -52.00383 15317 ft 332 kts 224°
2026-04-25 02:02 -26.71240 -52.02039 14889 ft 331 kts 224°
2026-04-25 02:02 -26.73006 -52.03690 14456 ft 330 kts 224°
2026-04-25 02:03 -26.74764 -52.05334 14054 ft 328 kts 224°
2026-04-25 02:03 -26.76508 -52.06965 13621 ft 326 kts 224°
2026-04-25 02:03 -26.78241 -52.08587 13191 ft 323 kts 224°
2026-04-25 02:03 -26.79961 -52.10198 12793 ft 322 kts 224°
2026-04-25 02:04 -26.81678 -52.11807 12390 ft 321 kts 224°
2026-04-25 02:04 -26.83362 -52.13386 11986 ft 319 kts 224°
2026-04-25 02:04 -26.85056 -52.14973 11590 ft 317 kts 223°
2026-04-25 02:04 -26.86740 -52.16553 11246 ft 312 kts 223°
2026-04-25 02:05 -26.88370 -52.18080 11120 ft 299 kts 223°
2026-04-25 02:05 -26.89935 -52.19543 11003 ft 286 kts 224°
2026-04-25 02:05 -26.91435 -52.20948 10873 ft 278 kts 224°
2026-04-25 02:05 -26.92913 -52.22339 10568 ft 277 kts 223°
2026-04-25 02:06 -26.94260 -52.23870 10211 ft 275 kts 237°
2026-04-25 02:06 -26.95160 -52.25720 9954 ft 269 kts 250°
2026-04-25 02:06 -26.95770 -52.27699 9637 ft 267 kts 255°
2026-04-25 02:06 -26.96295 -52.29687 9350 ft 264 kts 256°
2026-04-25 02:07 -26.96791 -52.31655 9077 ft 260 kts 256°
2026-04-25 02:07 -26.97275 -52.33599 8815 ft 257 kts 256°
2026-04-25 02:07 -26.97750 -52.35523 8543 ft 255 kts 256°
2026-04-25 02:07 -26.98220 -52.37430 8267 ft 254 kts 256°
2026-04-25 02:08 -26.98688 -52.39337 7990 ft 253 kts 257°
2026-04-25 02:08 -26.99155 -52.41240 7725 ft 253 kts 257°
2026-04-25 02:08 -26.99619 -52.43135 7469 ft 252 kts 256°
2026-04-25 02:08 -27.00085 -52.45033 7206 ft 252 kts 257°
2026-04-25 02:09 -27.00550 -52.46928 6933 ft 252 kts 257°
2026-04-25 02:09 -27.01006 -52.48789 6781 ft 243 kts 257°
2026-04-25 02:09 -27.01446 -52.50585 6667 ft 234 kts 257°
2026-04-25 02:09 -27.01872 -52.52322 6465 ft 230 kts 257°
2026-04-25 02:10 -27.02295 -52.54057 6221 ft 231 kts 257°
2026-04-25 02:10 -27.02718 -52.55796 5973 ft 231 kts 257°
2026-04-25 02:10 -27.02984 -52.57557 5729 ft 226 kts 272°
2026-04-25 02:10 -27.02816 -52.59217 5687 ft 209 kts 282°
2026-04-25 02:11 -27.02518 -52.60781 5531 ft 196 kts 284°
2026-04-25 02:11 -27.02223 -52.62209 5398 ft 185 kts 284°
2026-04-25 02:11 -27.01941 -52.63561 5303 ft 171 kts 284°
2026-04-25 02:11 -27.01683 -52.64808 5194 ft 158 kts 284°
2026-04-25 02:12 -27.01441 -52.65981 4972 ft 152 kts 285°
2026-04-25 02:12 -27.01249 -52.67145 4685 ft 152 kts 279°
2026-04-25 02:12 -27.01203 -52.68321 4432 ft 147 kts 270°
2026-04-25 02:12 -27.01318 -52.69424 4159 ft 140 kts 262°
2026-04-25 02:13 -27.01581 -52.70471 3972 ft 140 kts 254°
2026-04-25 02:13 -27.01983 -52.71467 3905 ft 141 kts 245°
2026-04-25 02:13 -27.02522 -52.72391 3825 ft 143 kts 237°
2026-04-25 02:13 -27.03191 -52.73218 3748 ft 144 kts 228°
2026-04-25 02:14 -27.03977 -52.73925 3741 ft 146 kts 219°
2026-04-25 02:14 -27.04865 -52.74489 3737 ft 148 kts 210°
2026-04-25 02:14 -27.05838 -52.74892 3739 ft 150 kts 200°
2026-04-25 02:14 -27.06870 -52.75113 3736 ft 152 kts 190°
2026-04-25 02:15 -27.07921 -52.75140 3742 ft 154 kts 180°
2026-04-25 02:15 -27.08981 -52.74967 3733 ft 155 kts 169°
2026-04-25 02:15 -27.10001 -52.74580 3687 ft 156 kts 157°
2026-04-25 02:15 -27.10931 -52.73953 3525 ft 157 kts 143°
2026-04-25 02:16 -27.11712 -52.73100 3315 ft 157 kts 128°
2026-04-25 02:16 -27.12292 -52.72075 3083 ft 155 kts 114°
2026-04-25 02:16 -27.12645 -52.70943 2888 ft 153 kts 101°
2026-04-25 02:16 -27.12844 -52.69781 2668 ft 150 kts 97°
2026-04-25 02:17 -27.13004 -52.68644 2471 ft 146 kts 97°
2026-04-25 02:17 -27.13146 -52.67519 2311 ft 145 kts 96°
2026-04-25 02:17 -27.13312 -52.66414 2133 ft 136 kts 98°
2026-04-25 02:17 -27.13423 -52.65612 2134 ft 55 kts 99°
2026-04-25 02:18 -27.13477 -52.65243 2136 ft 47 kts 101°
2026-04-25 02:18 -27.13512 -52.64989 2143 ft 22 kts 97°
2026-04-25 02:18 -27.13556 -52.64898 2146 ft 2 kts 134°
2026-04-25 02:18 -27.13558 -52.64879 2150 ft 2 kts 68°
2026-04-25 02:19 -27.13536 -52.64873 2150 ft 9 kts 342°
2026-04-25 02:19 -27.13510 -52.65003 2141 ft 19 kts 279°
2026-04-25 02:19 -27.13486 -52.65170 2137 ft 21 kts 280°
2026-04-25 02:19 -27.13462 -52.65339 2135 ft 25 kts 278°
2026-04-25 02:20 -27.13432 -52.65551 2135 ft 32 kts 279°
2026-04-25 02:20 -27.13409 -52.65712 2133 ft 11 kts 279°
2026-04-25 02:20 -27.13393 -52.65822 2133 ft 17 kts 279°
2026-04-25 02:20 -27.13373 -52.65970 2134 ft 21 kts 279°
2026-04-25 02:21 -27.13348 -52.66096 2132 ft 10 kts 313°
2026-04-25 02:21 -27.13295 -52.66104 2131 ft 10 kts
2026-04-25 02:21 -27.13225 -52.66124 2129 ft 6 kts 323°
2026-04-25 02:21 -27.13224 -52.66124 2129 ft 0 kts 323°